Temp
-5 -4 -5 -5 -4 -3 -4 -4 -4 -4 -5 -5 -5 -4 -5 -5 -4 -5 -5 -5 -5 -5 -5 -6 -6 -6 -6 -6 -6 -6 -6 -7 -7 -7 -7 -7 -7 -7 -7 -7 -7 -7 -7 -7 -7 -7 -6 -7 -7
-5 -4 -5 -5 -5 -4 -4 -4 -4 -4 -4 -5 -4 -5 -4 -4 -4 -5 -5 -5 -5 -6 -6 -6 -6 -6 -6 -6 -6 -7 -7 -7 -7 -7 -7 -7 -8 -8 -7 -7 -7 -7 -7 -7 -7 -7 -7 -7 -7
-5 -5 -5 -5 -5 -5 -5 -5 -4 -4 -4 -4 -5 -5 -5 -5 -5 -5 -5 -5 -5 -6 -6 -6 -6 -6 -6 -6 -7 -7 -7 -7 -8 -8 -8 -8 -8 -8 -8 -8 -7 -7 -8 -8 -8 -8 -8 -8 -8
-6 -5 -5 -6 -5 -5 -5 -5 -4 -4 -4 -4 -4 -5 -5 -5 -5 -5 -5 -5 -5 -5 -6 -6 -6 -6 -6 -6 -6 -7 -7 -7 -8 -8 -8 -8 -9 -8 -8 -8 -8 -8 -8 -8 -8 -9 -9 -9 -9
-6 -6 -6 -5 -4 -4 -4 -4 -4 -4 -4 -4 -5 -5 -5 -5 -5 -5 -6 -6 -6 -5 -6 -6 -6 -6 -6 -6 -6 -7 -7 -7 -8 -8 -8 -9 -9 -9 -9 -9 -8 -8 -9 -9 -8 -9 -9 -9 -9
-6 -6 -8 -7 -4 -4 -4 -4 -4 -4 -4 -4 -4 -5 -5 -5 -5 -5 -5 -5 -5 -6 -6 -5 -6 -6 -6 -6 -6 -7 -7 -7 -7 -8 -8 -9 -8 -9 -8 -9 -8 -8 -9 -8 -8 -8 -8 -8 -9
-6 -6 -6 -5 -4 -4 -4 -4 -4 -4 -4 -4 -4 -4 -5 -5 -5 -6 -5 -5 -5 -5 -5 -6 -6 -6 -6 -6 -6 -7 -7 -7 -7 -8 -7 -8 -8 -8 -8 -8 -8 -9 -9 -8 -9 -8 -8 -8 -8
-6 -6 -5 -5 -5 -4 -4 -4 -4 -4 -5 -4 -3 -3 -4 -5 -4 -5 -5 -5 -4 -5 -5 -6 -5 -6 -6 -6 -6 -6 -7 -7 -7 -7 -7 -7 -8 -8 -8 -8 -8 -8 -8 -9 -8 -8 -8 -8 -8
-6 -6 -7 -5 -4 -4 -4 -4 -4 -4 -4 -4 -4 -4 -4 -4 -4 -5 -4 -5 -4 -5 -5 -6 -6 -6 -5 -5 -6 -6 -6 -7 -7 -7 -6 -7 -7 -8 -8 -8 -8 -8 -8 -8 -8 -8 -8 -8 -8
-6 -6 -5 -5 -5 -4 -4 -4 -4 -4 -4 -4 -4 -4 -4 -5 -4 -4 -4 -4 -4 -5 -5 -5 -5 -5 -5 -6 -6 -6 -6 -7 -7 -7 -7 -7 -7 -8 -8 -7 -8 -8 -8 -8 -8 -7 -8 -8 -8
-6 -6 -5 -5 -5 -4 -4 -4 -4 -4 -4 -4 -4 -4 -4 -4 -4 -5 -5 -5 -5 -5 -6 -5 -5 -5 -5 -5 -6 -6 -6 -6 -6 -6 -7 -7 -7 -7 -7 -7 -7 -7 -8 -8 -8 -7 -8 -8 -8
-6 -5 -5 -4 -4 -3 -4 -4 -4 -4 -4 -4 -4 -4 -5 -4 -5 -5 -5 -5 -5 -5 -5 -6 -5 -5 -5 -5 -6 -6 -6 -6 -6 -6 -6 -7 -7 -7 -7 -7 -7 -8 -8 -8 -8 -8 -8 -8 -8
-6 -5 -5 -4 -3 -3 -3 -4 -3 -3 -3 -4 -4 -4 -5 -5 -5 -5 -5 -5 -5 -5 -6 -5 -5 -5 -5 -5 -5 -5 -6 -7 -6 -6 -6 -7 -7 -7 -7 -8 -8 -8 -8 -8 -8 -8 -8 -8 -8
-7 -6 -5 -5 -5 -4 -4 -4 -4 -4 -4 -4 -4 -4 -5 -5 -5 -5 -5 -5 -5 -5 -5 -5 -5 -5 -5 -5 -5 -5 -5 -5 -5 -6 -6 -7 -7 -7 -7 -8 -8 -8 -8 -9 -9 -8 -8 -8 -8
-7 -6 -6 -5 -5 -5 -5 -4 -4 -4 -4 -4 -5 -5 -5 -5 -6 -5 -5 -5 -5 -5 -5 -5 -5 -5 -5 -5 -5 -5 -5 -5 -5 -6 -6 -6 -7 -7 -7 -8 -8 -8 -8 -8 -8 -8 -9 -8 -8
-8 -7 -7 -6 -6 -5 -5 -4 -4 -4 -5 -5 -5 -5 -5 -5 -5 -5 -5 -5 -5 -5 -5 -5 -5 -5 -5 -4 -5 -4 -5 -5 -5 -5 -6 -6 -7 -7 -7 -8 -8 -8 -8 -8 -8 -8 -8 -8 -8
-8 -8 -7 -6 -6 -5 -5 -5 -5 -5 -5 -5 -5 -6 -6 -6 -5 -5 -5 -5 -5 -5 -5 -5 -5 -4 -4 -4 -4 -4 -5 -5 -5 -6 -6 -7 -7 -7 -8 -8 -8 -8 -8 -8 -8 -8 -8 -8 -8
-8 -8 -8 -7 -6 -5 -5 -5 -5 -4 -5 -5 -5 -5 -5 -5 -5 -5 -5 -5 -5 -4 -5 -4 -4 -4 -4 -4 -4 -4 -5 -5 -6 -6 -6 -7 -7 -8 -8 -8 -8 -9 -9 -9 -8 -8 -8 -8 -7
-9 -8 -9 -8 -6 -6 -6 -5 -5 -5 -4 -5 -5 -5 -5 -5 -5 -5 -5 -5 -4 -4 -4 -4 -4 -4 -4 -4 -4 -4 -5 -6 -6 -6 -7 -7 -8 -8 -8 -8 -8 -8 -8 -8 -8 -8 -8 -8 -8
-8 -8 -8 -8 -6 -6 -6 -5 -5 -5 -5 -4 -5 -5 -5 -5 -4 -5 -5 -4 -4 -4 -4 -4 -4 -4 -4 -4 -4 -5 -5 -6 -6 -7 -8 -8 -8 -9 -9 -9 -9 -9 -9 -9 -9 -9 -9 -8 -8
-8 -8 -8 -8 -7 -7 -6 -5 -5 -5 -4 -4 -4 -4 -4 -4 -4 -4 -4 -4 -3 -4 -4 -4 -3 -3 -4 -4 -4 -5 -6 -6 -6 -7 -8 -9 -9 -9 -9 -10 -10 -9 -9 -9 -9 -9 -9 -9 -9
-8 -8 -8 -8 -7 -8 -7 -7 -6 -5 -4 -4 -4 -4 -4 -4 -4 -4 -4 -3 -3 -3 -3 -3 -3 -3 -4 -4 -4 -5 -6 -6 -7 -8 -9 -9 -9 -9 -9 -10 -10 -10 -10 -10 -9 -9 -9 -9 -9
-7 -9 -8 -8 -7 -8 -7 -6 -7 -5 -4 -4 -4 -4 -4 -3 -4 -4 -4 -3 -3 -3 -3 -3 -3 -3 -4 -4 -5 -5 -6 -6 -7 -8 -8 -9 -9 -9 -9 -9 -9 -10 -10 -10 -10 -9 -10 -9 -9
-8 -8 -8 -8 -8 -8 -8 -7 -7 -6 -5 -4 -4 -4 -4 -3 -4 -3 -3 -2 -3 -3 -3 -3 -3 -3 -4 -4 -5 -6 -6 -7 -7 -7 -8 -9 -9 -9 -10 -10 -10 -10 -9 -9 -9 -9 -9 -9 -9
-8 -8 -9 -9 -8 -7 -7 -7 -6 -7 -6 -5 -4 -3 -4 -3 -4 -3 -3 -3 -3 -3 -3 -3 -3 -3 -4 -4 -5 -6 -6 -7 -7 -8 -8 -9 -9 -9 -10 -10 -10 -10 -10 -10 -9 -9 -9 -9 -9
-8 -9 -8 -8 -7 -7 -7 -7 -7 -6 -6 -5 -4 -4 -3 -3 -3 -4 -3 -3 -3 -3 -3 -3 -3 -3 -4 -4 -5 -6 -6 -6 -8 -8 -9 -9 -10 -9 -10 -10 -9 -9 -10 -10 -9 -9 -9 -9 -9
-8 -8 -8 -8 -7 -7 -7 -6 -6 -7 -6 -5 -4 -3 -3 -3 -3 -3 -3 -3 -3 -3 -2 -3 -3 -3 -4 -4 -5 -5 -6 -7 -7 -8 -9 -9 -9 -9 -9 -9 -9 -9 -9 -9 -9 -9 -9 -9 -8
-8 -7 -9 -8 -8 -7 -7 -7 -7 -7 -6 -5 -4 -3 -3 -3 -3 -3 -3 -3 -3 -3 -3 -3 -3 -3 -4 -4 -5 -5 -6 -7 -7 -8 -9 -9 -9 -9 -9 -9 -9 -9 -9 -9 -9 -9 -9 -9 -9
-7 -8 -9 -8 -8 -7 -7 -6 -7 -7 -6 -5 -4 -3 -3 -3 -3 -3 -3 -3 -3 -3 -3 -3 -3 -3 -4 -4 -5 -5 -6 -7 -7 -8 -9 -9 -9 -9 -9 -9 -9 -9 -9 -9 -9 -9 -9 -9 -9
-7 -7 -7 -8 -8 -8 -7 -6 -6 -6 -6 -4 -4 -4 -4 -4 -4 -3 -3 -3 -3 -3 -3 -3 -3 -3 -4 -4 -4 -5 -6 -7 -7 -8 -9 -9 -9 -9 -9 -9 -9 -9 -9 -9 -9 -9 -9 -9 -9
Height
5899 5898 5897 5897 5901 5899 5900 5900 5901 5901 5901 5900 5902 5904 5906 5907 5909 5914 5912 5913 5914 5913 5913 5914 5914 5914 5915 5915 5915 5915 5915 5914 5914 5913 5912 5911 5911 5910 5910 5908 5907 5906 5905 5904 5903 5902 5901 5900 5899
5899 5899 5898 5899 5901 5902 5902 5902 5903 5903 5902 5903 5904 5906 5908 5909 5911 5913 5914 5914 5914 5914 5914 5915 5915 5916 5917 5916 5916 5916 5916 5915 5914 5914 5913 5912 5910 5911 5910 5909 5908 5908 5907 5905 5904 5903 5901 5900 5899
5900 5899 5900 5900 5902 5902 5903 5903 5904 5904 5905 5905 5907 5908 5910 5910 5910 5911 5913 5913 5914 5915 5915 5915 5916 5918 5919 5919 5918 5918 5918 5917 5915 5915 5914 5912 5911 5912 5911 5911 5909 5908 5908 5907 5905 5903 5901 5900 5898
5901 5901 5902 5904 5903 5903 5903 5903 5904 5905 5906 5906 5907 5909 5910 5911 5912 5911 5913 5914 5915 5916 5917 5917 5918 5920 5920 5921 5920 5921 5920 5918 5917 5916 5915 5913 5912 5911 5912 5912 5909 5909 5907 5906 5904 5902 5900 5899 5898
5902 5902 5904 5904 5904 5903 5903 5905 5905 5906 5907 5907 5907 5909 5910 5911 5912 5912 5913 5915 5916 5918 5918 5919 5920 5921 5922 5922 5922 5922 5920 5918 5918 5917 5915 5914 5912 5912 5911 5910 5909 5909 5907 5905 5903 5900 5898 5896 5896
5904 5904 5906 5906 5905 5905 5905 5906 5906 5906 5908 5908 5907 5908 5910 5911 5912 5912 5914 5916 5917 5919 5920 5921 5921 5922 5923 5923 5923 5921 5919 5918 5917 5916 5915 5913 5911 5911 5912 5910 5908 5908 5907 5905 5903 5898 5895 5894 5893
5904 5904 5904 5905 5906 5907 5906 5907 5907 5907 5908 5909 5909 5909 5910 5911 5912 5913 5915 5917 5917 5919 5921 5922 5922 5923 5923 5923 5922 5920 5919 5918 5917 5917 5915 5913 5912 5911 5911 5910 5907 5906 5906 5905 5903 5900 5897 5896 5894
5906 5906 5906 5905 5906 5906 5907 5907 5907 5908 5908 5909 5909 5911 5911 5911 5912 5914 5916 5918 5920 5921 5922 5923 5923 5923 5924 5922 5921 5920 5919 5919 5919 5918 5916 5914 5913 5912 5910 5909 5906 5907 5906 5906 5904 5902 5900 5898 5896
5906 5908 5907 5905 5906 5906 5907 5907 5908 5908 5909 5910 5911 5911 5912 5914 5914 5916 5917 5920 5921 5921 5923 5923 5923 5924 5923 5922 5922 5921 5921 5921 5920 5919 5918 5917 5915 5913 5911 5911 5911 5910 5909 5908 5906 5904 5903 5901 5899
5908 5909 5908 5907 5906 5907 5907 5908 5908 5908 5908 5910 5911 5912 5912 5914 5916 5916 5918 5920 5921 5923 5923 5924 5924 5924 5924 5924 5923 5923 5922 5922 5921 5920 5920 5919 5917 5915 5914 5913 5913 5912 5910 5908 5907 5905 5904 5903 5902
5909 5909 5909 5908 5908 5908 5908 5908 5909 5908 5908 5909 5910 5912 5912 5913 5915 5917 5918 5919 5921 5923 5924 5925 5926 5926 5926 5926 5925 5924 5924 5923 5922 5922 5922 5921 5920 5918 5917 5916 5914 5913 5912 5910 5908 5907 5905 5904 5903
5910 5910 5910 5910 5909 5909 5909 5909 5909 5909 5909 5909 5910 5910 5912 5913 5915 5916 5918 5920 5921 5924 5925 5926 5927 5927 5927 5928 5926 5925 5924 5924 5924 5925 5924 5923 5921 5921 5919 5917 5915 5913 5912 5911 5909 5908 5906 5905 5904
5909 5909 5909 5909 5909 5908 5908 5909 5908 5909 5909 5909 5909 5910 5911 5914 5914 5916 5917 5920 5922 5924 5925 5926 5928 5928 5928 5929 5927 5926 5924 5924 5926 5927 5926 5925 5924 5921 5920 5918 5916 5915 5913 5911 5910 5908 5907 5905 5904
5910 5909 5908 5907 5907 5908 5909 5909 5909 5908 5908 5907 5907 5909 5910 5912 5914 5915 5918 5920 5922 5924 5925 5927 5929 5929 5930 5930 5929 5929 5927 5926 5927 5929 5928 5927 5925 5923 5921 5919 5917 5916 5915 5913 5911 5910 5908 5906 5905
5910 5911 5909 5908 5908 5909 5909 5909 5909 5908 5908 5907 5907 5907 5908 5910 5912 5915 5918 5919 5923 5924 5926 5928 5930 5931 5931 5932 5932 5931 5930 5930 5930 5930 5930 5928 5926 5925 5923 5921 5919 5918 5916 5915 5913 5911 5909 5908 5906
5909 5911 5911 5911 5909 5909 5910 5910 5910 5909 5908 5907 5906 5905 5906 5908 5910 5914 5918 5920 5923 5925 5927 5929 5931 5932 5933 5935 5935 5935 5934 5933 5932 5933 5932 5931 5929 5927 5925 5923 5922 5920 5918 5916 5914 5913 5911 5909 5907
5909 5914 5912 5911 5909 5909 5910 5910 5910 5908 5907 5907 5906 5906 5906 5909 5911 5914 5918 5920 5923 5926 5929 5930 5933 5934 5935 5937 5938 5937 5937 5936 5935 5935 5934 5933 5932 5930 5928 5926 5925 5923 5920 5918 5916 5913 5911 5909 5908
5913 5910 5910 5910 5910 5909 5909 5909 5909 5908 5908 5907 5906 5906 5907 5909 5911 5914 5917 5920 5923 5927 5930 5932 5935 5936 5937 5939 5940 5939 5939 5939 5938 5938 5937 5936 5934 5932 5930 5928 5926 5924 5921 5919 5917 5914 5911 5909 5907
5906 5909 5910 5908 5908 5908 5908 5908 5908 5908 5908 5908 5907 5907 5908 5910 5912 5915 5919 5922 5925 5927 5930 5933 5936 5938 5940 5941 5941 5942 5942 5941 5940 5940 5939 5937 5936 5934 5933 5930 5928 5925 5923 5920 5918 5916 5913 5909 5906
5903 5905 5907 5906 5907 5908 5907 5907 5907 5908 5908 5908 5908 5908 5909 5912 5914 5917 5920 5923 5926 5929 5932 5934 5937 5940 5942 5943 5943 5944 5943 5942 5942 5941 5940 5939 5938 5936 5934 5932 5929 5927 5924 5922 5919 5916 5913 5910 5908
5900 5903 5905 5905 5904 5906 5907 5908 5908 5909 5909 5909 5910 5911 5911 5914 5916 5918 5921 5924 5928 5931 5933 5935 5938 5941 5943 5944 5945 5945 5945 5944 5943 5943 5942 5941 5940 5938 5936 5934 5931 5929 5926 5924 5921 5918 5913 5910 5908
5898 5901 5900 5901 5903 5909 5906 5912 5908 5909 5909 5910 5911 5913 5913 5915 5917 5920 5923 5926 5929 5931 5934 5937 5940 5942 5944 5945 5946 5946 5946 5945 5944 5944 5943 5942 5941 5940 5938 5935 5933 5930 5928 5925 5922 5918 5915 5911 5908
5895 5897 5897 5898 5900 5902 5905 5907 5911 5908 5908 5910 5912 5913 5914 5916 5918 5919 5922 5926 5929 5933 5935 5938 5941 5943 5944 5945 5946 5946 5946 5945 5945 5945 5944 5943 5942 5940 5938 5936 5934 5931 5929 5926 5922 5918 5915 5911 5907
5890 5892 5893 5895 5898 5902 5903 5905 5911 5909 5907 5908 5910 5913 5915 5916 5919 5920 5923 5926 5930 5934 5937 5940 5942 5943 5944 5945 5946 5947 5946 5946 5946 5945 5943 5943 5941 5940 5938 5937 5934 5932 5929 5926 5922 5918 5913 5909 5905
5881 5887 5892 5895 5897 5901 5900 5902 5907 5906 5906 5908 5909 5911 5915 5917 5919 5922 5925 5929 5932 5935 5938 5940 5942 5943 5944 5944 5946 5946 5946 5946 5946 5945 5944 5943 5941 5940 5939 5937 5935 5932 5929 5925 5921 5917 5912 5907 5903
5875 5883 5890 5893 5895 5901 5898 5901 5904 5903 5904 5906 5908 5910 5913 5917 5919 5922 5926 5929 5932 5935 5938 5940 5942 5943 5944 5944 5945 5945 5946 5945 5945 5944 5943 5943 5942 5941 5939 5938 5935 5932 5928 5924 5920 5916 5911 5906 5901
5872 5873 5887 5890 5889 5893 5899 5901 5901 5902 5902 5904 5906 5908 5912 5916 5919 5922 5926 5930 5933 5936 5938 5939 5941 5943 5944 5944 5944 5944 5945 5945 5944 5944 5943 5942 5942 5940 5939 5937 5934 5932 5928 5923 5919 5913 5908 5903 5899
5864 5876 5878 5884 5886 5893 5898 5899 5902 5901 5902 5902 5903 5905 5909 5913 5918 5921 5925 5929 5932 5935 5937 5938 5940 5942 5943 5943 5943 5944 5944 5944 5944 5944 5943 5942 5941 5940 5938 5936 5933 5930 5926 5922 5917 5911 5906 5900 5896
5856 5861 5869 5880 5884 5890 5896 5899 5899 5899 5899 5900 5901 5902 5907 5913 5918 5920 5924 5928 5931 5934 5936 5938 5939 5940 5941 5942 5942 5942 5943 5943 5943 5943 5942 5941 5941 5939 5937 5935 5932 5929 5925 5920 5914 5909 5903 5898 5893
5850 5859 5864 5870 5877 5884 5891 5900 5896 5897 5896 5899 5902 5903 5907 5911 5915 5919 5922 5927 5930 5933 5935 5936 5938 5939 5940 5940 5941 5941 5942 5942 5942 5942 5941 5940 5939 5938 5936 5933 5930 5926 5922 5917 5912 5906 5900 5895 5890
Wind_Speed
7 8 10 12 15 19 15 13 15 14 12 18 21 16 12 12 12 10 8 9 8 8 9 9 8 8 9 10 12 12 11 11 10 8 10 11 10 10 10 9 7 7 7 8 9 10 11 10 10
7 8 10 14 14 14 12 15 13 8 13 19 19 16 16 13 12 11 8 7 8 8 9 9 7 8 8 8 9 10 10 10 10 9 8 6 2 5 4 7 7 7 8 8 9 7 6 6 7
7 8 8 14 11 10 12 14 16 13 13 13 13 17 14 13 11 10 11 9 8 7 8 8 7 9 6 6 7 8 8 7 8 5 5 4 5 4 4 4 7 7 7 7 7 5 5 6 3
4 6 7 11 11 11 10 13 13 10 11 14 16 14 13 8 4 9 11 9 8 7 8 7 7 6 4 4 5 6 8 6 8 9 5 5 6 6 6 3 5 5 6 8 9 7 8 8 5
3 4 6 5 9 11 12 11 12 10 10 12 15 17 14 10 4 7 13 10 8 8 8 9 6 4 4 3 4 6 8 6 5 8 6 6 8 5 3 4 7 8 8 14 15 13 10 12 10
3 3 5 4 9 10 12 11 12 9 8 7 13 16 15 11 6 10 12 10 9 7 6 6 5 3 3 2 5 6 6 6 8 9 8 9 8 5 2 5 10 12 13 13 13 19 7 9 12
2 2 2 5 8 10 11 12 12 10 9 8 9 15 15 10 11 12 19 10 10 10 7 4 4 3 2 6 6 6 7 7 7 9 11 12 11 7 5 6 10 7 5 10 12 17 14 13 11
4 2 3 5 8 10 9 11 11 12 12 10 11 12 13 13 13 15 14 12 11 8 5 3 3 2 4 5 5 6 5 6 6 11 13 15 15 12 7 10 11 11 15 12 13 13 16 15 15
5 4 3 6 7 8 9 9 11 11 11 10 8 12 12 14 11 8 9 13 10 6 5 5 5 4 4 6 6 5 6 7 9 11 13 15 16 19 16 15 17 16 15 13 13 13 14 13 13
3 4 6 8 9 8 9 8 8 8 10 11 12 12 12 11 11 8 11 13 9 5 5 7 6 5 5 9 7 7 8 10 10 10 11 13 16 19 17 15 14 15 14 12 11 12 12 12 12
1 4 6 8 8 7 6 6 6 7 9 11 14 13 16 16 15 11 15 14 10 5 9 5 5 4 6 7 7 8 9 9 9 10 10 13 14 14 15 16 14 13 12 12 12 12 10 10 10
5 5 8 7 7 6 5 3 4 5 6 7 10 13 14 16 16 16 16 13 9 7 9 4 4 4 4 2 7 8 8 7 7 11 11 11 10 12 13 13 12 12 11 10 9 8 7 7 9
6 8 10 10 8 7 5 4 4 5 7 8 9 10 13 13 15 15 15 13 10 12 10 5 6 6 9 8 8 10 10 5 7 9 10 9 11 12 12 14 15 16 14 14 14 12 10 9 11
7 10 9 6 4 2 1 1 2 4 5 8 10 11 10 16 16 16 16 14 14 12 10 10 10 10 12 11 11 13 14 11 11 12 9 10 11 12 13 17 18 16 14 13 12 13 12 13 13
4 6 5 6 4 2 3 3 3 4 5 6 6 10 12 17 20 18 16 15 20 12 14 14 12 13 13 12 12 16 17 17 15 12 11 12 12 11 12 14 14 15 13 13 13 14 13 12 14
3 4 3 3 4 3 4 4 5 4 5 5 5 7 14 20 21 15 16 18 16 16 16 16 15 15 13 12 13 15 17 15 14 11 10 12 13 13 13 13 14 15 14 14 14 14 15 15 15
5 6 8 7 6 4 5 6 7 4 4 5 4 5 14 18 17 17 18 18 18 19 18 18 16 16 13 14 13 14 14 13 11 10 9 10 9 12 14 16 16 15 15 15 15 15 15 15 14
11 12 12 14 13 10 8 7 9 7 3 3 5 6 15 19 19 20 23 22 21 22 22 19 18 16 15 15 13 13 12 11 10 11 8 9 12 14 17 18 16 16 15 16 16 15 16 16 15
17 13 14 14 16 13 10 9 8 10 5 5 6 9 12 16 19 22 24 23 25 23 21 21 19 16 16 14 13 12 10 10 12 11 10 13 16 19 21 22 22 21 21 20 17 16 16 16 15
14 13 13 17 15 14 12 11 9 10 7 6 8 11 14 18 21 23 24 24 25 24 23 22 19 18 17 14 12 11 10 12 13 12 15 16 17 19 23 26 25 23 21 20 21 21 18 14 12
18 11 16 17 16 12 13 12 12 11 9 8 9 12 16 16 19 21 24 26 25 24 23 22 21 18 16 13 11 10 11 12 13 15 16 17 18 19 22 26 29 27 23 20 22 22 25 24 21
21 15 21 25 21 6 15 8 16 14 11 11 9 11 14 14 15 17 22 24 25 25 24 22 20 18 15 13 10 10 12 14 15 16 16 18 18 19 22 26 28 30 30 28 24 23 24 24 23
19 21 22 22 22 19 14 16 9 15 14 13 12 11 13 15 15 14 24 28 27 27 25 23 20 17 13 12 10 11 13 15 16 16 19 19 20 22 25 27 29 30 29 30 30 25 24 25 28
24 23 23 19 19 19 14 17 9 13 14 14 13 13 14 19 17 16 24 29 30 28 25 22 18 15 13 12 11 12 13 13 15 16 16 18 21 22 25 27 29 31 31 31 32 30 27 28 33
36 28 19 16 19 14 22 21 19 13 13 15 16 17 17 21 20 20 24 27 27 26 23 19 15 14 12 11 10 11 12 12 13 15 15 18 20 21 22 24 26 30 32 32 34 34 30 28 31
38 31 22 21 17 18 22 21 14 17 15 17 19 20 21 24 24 23 24 25 26 25 21 17 14 13 11 10 10 11 10 10 12 13 14 16 17 18 20 22 25 28 31 33 34 35 33 29 30
40 40 26 20 20 19 18 21 19 14 18 19 20 21 23 25 26 25 23 23 23 23 20 16 13 12 10 9 9 9 8 9 10 11 11 14 16 17 19 21 24 27 31 33 35 36 34 31 30
43 37 34 29 24 25 19 23 16 13 9 18 16 22 27 29 27 25 22 21 21 21 18 14 13 11 9 8 8 8 8 8 10 9 10 12 13 14 17 21 24 27 31 34 36 37 36 34 32
46 45 42 28 26 25 22 19 16 14 14 20 18 28 27 26 26 24 22 20 19 17 15 13 11 10 9 7 7 7 8 9 9 10 9 10 11 13 17 21 24 28 30 35 37 38 38 35 33
46 45 41 34 34 30 25 19 25 18 17 22 20 25 27 26 26 23 22 20 18 16 14 12 11 9 8 6 5 6 7 9 9 10 9 10 13 16 17 20 26 30 30 36 38 39 39 35 35
Wind_Direction
128 88 132 122 115 103 104 118 122 121 125 120 150 148 130 140 156 156 135 136 116 109 103 99 93 92 80 68 68 64 59 64 61 39 46 59 58 58 33 33 35 29 40 33 30 30 23 34 26
112 96 125 127 112 117 126 114 115 120 139 141 133 146 154 133 140 162 158 148 131 118 109 99 92 93 81 71 64 54 45 43 45 34 30 36 68 7 2 12 21 35 47 40 32 16 11 25 344
91 101 118 155 136 137 140 137 137 143 147 147 146 150 157 141 151 172 172 170 151 127 110 101 94 84 82 74 65 57 46 31 41 11 9 21 320 337 69 22 28 34 28 13 359 349 329 352 342
83 101 126 149 163 151 155 147 144 141 159 156 154 165 178 120 116 189 191 171 157 140 119 106 87 84 94 88 68 58 22 11 347 327 261 294 303 277 5 10 16 352 347 351 334 326 301 294 282
126 109 103 176 173 169 155 154 143 147 158 160 178 172 188 188 212 186 165 171 159 154 122 103 95 112 97 70 38 24 8 357 1 14 359 322 298 348 73 13 349 346 333 313 318 318 290 279 281
206 127 89 213 190 175 165 163 158 163 176 170 166 185 173 198 160 174 140 137 166 153 127 106 117 108 80 33 25 41 37 42 37 17 25 43 47 136 316 281 309 321 323 341 20 22 323 280 278
177 142 182 208 199 189 179 175 169 169 182 172 164 176 180 171 192 184 148 161 92 136 128 116 91 63 38 42 51 45 42 48 41 35 38 38 35 35 15 350 334 320 50 72 40 29 48 59 53
155 138 174 202 186 203 195 183 185 186 182 185 177 180 176 158 150 152 171 162 139 123 115 92 69 25 56 53 37 35 29 45 48 49 44 49 48 44 20 29 61 67 59 72 49 41 47 59 62
156 143 174 189 184 185 188 192 183 189 197 194 201 180 183 184 160 141 152 136 121 111 75 89 86 66 78 51 42 38 33 57 57 56 64 70 50 43 45 57 58 57 50 57 51 42 46 52 55
160 155 183 176 154 157 155 165 176 193 211 208 207 206 188 193 204 185 154 146 146 119 104 92 95 106 91 76 46 49 61 72 68 70 79 62 57 57 62 63 58 48 47 46 43 42 47 48 51
275 189 185 172 147 143 142 151 169 177 191 204 202 206 205 188 202 187 167 169 176 164 126 113 115 131 108 68 50 57 65 72 74 72 79 70 59 59 62 58 56 43 40 38 35 31 31 42 48
227 181 179 164 143 133 129 137 172 192 201 197 202 198 207 199 194 198 192 187 185 155 155 142 154 126 122 122 53 51 59 81 91 78 87 76 65 55 51 50 48 39 27 27 29 30 30 35 32
212 193 180 162 153 141 142 158 197 207 204 211 204 204 196 206 191 205 200 178 165 160 169 169 156 128 123 117 71 46 40 75 119 99 81 73 61 51 48 50 44 39 36 39 43 51 57 54 50
229 204 179 160 139 127 160 166 250 262 230 212 208 207 204 182 190 199 194 184 167 163 168 159 151 142 127 109 80 70 69 84 118 106 94 73 61 56 66 49 40 36 47 46 46 48 51 59 57
263 221 191 157 152 183 282 286 281 274 242 213 210 202 199 187 188 193 185 173 169 172 161 153 154 143 132 114 95 84 82 86 105 108 93 62 61 58 53 39 46 47 46 52 52 57 61 54 52
212 221 189 205 173 206 240 256 271 275 240 216 209 198 194 194 184 180 175 172 182 170 160 158 154 143 134 117 103 97 88 93 102 112 99 63 62 56 48 41 37 35 42 45 47 53 51 42 40
225 209 231 242 231 217 246 260 260 264 249 240 210 185 178 178 175 175 176 178 173 167 166 159 152 142 135 123 121 109 102 98 99 94 87 68 56 58 53 51 43 38 37 35 34 31 31 32 27
242 214 230 238 235 231 230 247 258 240 198 217 210 172 174 175 181 176 172 166 162 164 160 154 149 146 139 134 130 117 114 113 102 101 104 83 72 67 60 56 48 42 37 37 30 23 18 13 11
218 221 226 238 239 234 230 235 254 239 198 181 173 161 170 175 175 170 164 162 158 156 156 153 151 148 139 143 127 126 125 122 106 108 103 88 75 68 63 56 54 47 38 33 27 18 11 3 360
220 224 239 246 244 240 238 238 244 227 208 183 183 160 159 168 171 171 166 165 158 157 154 150 154 145 145 140 130 123 123 114 105 101 90 81 71 64 62 56 51 49 46 42 35 29 26 21 3
216 229 236 238 242 255 248 249 246 221 192 169 170 163 154 168 176 174 169 164 157 157 156 155 152 149 147 141 129 123 128 111 105 100 95 83 73 63 60 52 52 49 43 36 32 30 33 28 18
215 233 232 236 237 266 241 207 247 228 200 177 174 167 159 166 174 180 178 167 165 166 160 155 155 151 151 142 136 131 127 112 98 98 91 81 72 67 60 55 49 44 40 35 29 27 26 20 15
211 231 232 230 228 235 236 235 242 229 210 195 183 187 173 174 181 175 179 177 171 165 160 162 155 157 153 141 139 136 129 112 99 101 91 79 67 61 55 48 43 39 35 29 24 21 17 13 10
219 224 240 238 228 237 222 215 219 234 210 201 188 187 184 171 172 162 161 162 163 163 162 161 158 157 153 143 140 134 124 110 104 92 79 70 67 55 47 39 31 28 26 21 19 15 13 9 7
214 216 230 242 231 214 226 204 169 204 209 204 188 187 188 171 161 161 160 162 164 164 167 165 161 161 154 144 137 127 120 113 101 89 79 72 65 53 41 31 24 19 15 13 12 12 8 6 1
210 209 213 234 214 214 224 195 186 190 199 199 191 189 186 181 170 170 171 168 171 171 173 171 166 162 154 150 137 126 120 108 97 88 81 74 61 46 34 24 17 13 8 6 6 7 4 1 360
208 216 212 229 236 197 236 204 201 191 206 201 200 202 188 186 177 173 178 179 176 178 178 176 168 164 161 157 137 128 120 109 105 95 85 74 57 39 24 14 7 5 2 360 359 360 359 357 355
218 217 212 219 220 215 211 211 201 208 219 208 213 202 185 184 186 175 178 182 186 186 182 175 172 169 166 158 143 132 115 115 103 98 85 66 46 25 12 4 360 357 355 354 353 353 353 353 352
211 214 214 222 214 212 206 221 209 208 208 206 201 180 180 186 183 177 180 185 187 185 180 178 179 174 170 158 151 129 118 107 95 84 67 48 24 6 357 351 350 350 347 349 347 348 349 350 349
221 220 219 210 216 203 204 202 220 209 216 202 189 180 178 179 182 182 184 187 188 189 186 182 186 179 175 167 144 123 111 94 80 66 48 26 10 0 348 346 347 346 342 345 343 343 346 348 345